EN

Hourly Weather Brzeczka

Today, 16 April, Friday

Time Temperature Precipitation Wind Pressure Humidity
00:00 +3°C° 0.1 mm 4 mps 757 mmHg 95%
01:00 +3°C° 0.1 mm 4 mps 757 mmHg 96%
02:00 +3°C° 0.3 mm 4 mps 757 mmHg 96%
03:00 +1°C° 0.3 mm 4 mps 757 mmHg 95%
04:00 +1°C° 0.3 mm 4 mps 757 mmHg 95%
05:00 +1°C° 0.2 mm 4 mps 757 mmHg 95%
06:00 +1°C° 0.2 mm 4 mps 757 mmHg 95%
07:00 +1°C° 0.2 mm 4 mps 757 mmHg 95%
08:00 +1°C° 0 mm 4 mps 757 mmHg 95%
09:00 +1°C° 0 mm 4 mps 757 mmHg 95%
10:00 +3°C° 0 mm 4 mps 757 mmHg 95%
11:00 +3°C° 0 mm 4 mps 757 mmHg 94%
12:00 +3°C° 0 mm 4 mps 757 mmHg 94%
13:00 +2°C° 0 mm 5 mps 757 mmHg 94%
14:00 +3°C° 0.1 mm 4 mps 757 mmHg 94%
15:00 +3°C° 0.1 mm 4 mps 757 mmHg 94%
16:00 +3°C° 0.1 mm 4 mps 756 mmHg 94%
17:00 +3°C° 0.9 mm 4 mps 756 mmHg 95%
18:00 +3°C° 0.9 mm 4 mps 757 mmHg 95%
19:00 +3°C° 0.9 mm 3 mps 757 mmHg 96%
20:00 +3°C° 0.1 mm 3 mps 757 mmHg 97%
21:00 +3°C° 0.1 mm 3 mps 757 mmHg 97%
22:00 +3°C° 0.1 mm 3 mps 757 mmHg 97%
23:00 +4°C° 0 mm 2 mps 757 mmHg 98%

Tomorrow, 17 April, Saturday

Time Temperature Precipitation Wind Pressure Humidity
00:00 +4°C° 0 mm 2 mps 757 mmHg 98%
01:00 +4°C° 0 mm 2 mps 757 mmHg 98%
02:00 +4°C° 0 mm 2 mps 757 mmHg 98%
03:00 +5°C° 0 mm 2 mps 757 mmHg 98%
04:00 +4°C° 0 mm 3 mps 756 mmHg 97%
05:00 +4°C° 0 mm 3 mps 757 mmHg 96%
06:00 +5°C° 0 mm 3 mps 757 mmHg 96%
07:00 +7°C° 0 mm 3 mps 757 mmHg 95%
08:00 +7°C° 0 mm 3 mps 757 mmHg 92%
09:00 +8°C° 0 mm 3 mps 757 mmHg 90%
10:00 +8°C° 0 mm 3 mps 757 mmHg 87%
11:00 +9°C° 0 mm 3 mps 757 mmHg 86%
12:00 +9°C° 0 mm 3 mps 757 mmHg 85%
13:00 +9°C° 0 mm 3 mps 757 mmHg 83%
14:00 +10°C° 0.1 mm 3 mps 757 mmHg 81%
15:00 +12°C° 0.1 mm 2 mps 757 mmHg 78%
16:00 +12°C° 0.1 mm 2 mps 757 mmHg 76%
17:00 +10°C° 0.1 mm 2 mps 757 mmHg 80%
18:00 +9°C° 0.1 mm 2 mps 757 mmHg 84%
19:00 +8°C° 0.1 mm 2 mps 757 mmHg 88%
20:00 +8°C° 0 mm 2 mps 757 mmHg 90%
21:00 +7°C° 0 mm 2 mps 758 mmHg 91%
22:00 +6°C° 0 mm 2 mps 758 mmHg 92%
23:00 +6°C° 0 mm 2 mps 758 mmHg 93%

Day after tomorrow, 18 April, Sunday

Time Temperature Precipitation Wind Pressure Humidity
00:00 +6°C° 0 mm 2 mps 758 mmHg 93%
01:00 +6°C° 0 mm 2 mps 758 mmHg 93%
02:00 +5°C° 0 mm 2 mps 758 mmHg 94%
03:00 +5°C° 0 mm 2 mps 758 mmHg 94%
04:00 +6°C° 0 mm 1 mps 758 mmHg 94%
05:00 +6°C° 0 mm 2 mps 758 mmHg 93%
06:00 +7°C° 0 mm 2 mps 758 mmHg 91%
07:00 +8°C° 0 mm 2 mps 758 mmHg 89%
08:00 +9°C° 0 mm 2 mps 758 mmHg 83%
09:00 +11°C° 0 mm 3 mps 758 mmHg 78%
10:00 +12°C° 0 mm 3 mps 758 mmHg 72%
11:00 +13°C° 0.1 mm 3 mps 758 mmHg 68%
12:00 +14°C° 0.1 mm 3 mps 758 mmHg 63%
13:00 +16°C° 0.1 mm 3 mps 758 mmHg 59%
14:00 +16°C° 0.2 mm 3 mps 757 mmHg 62%
15:00 +15°C° 0.2 mm 4 mps 757 mmHg 64%
16:00 +14°C° 0.2 mm 4 mps 757 mmHg 67%
17:00 +13°C° 0.3 mm 4 mps 757 mmHg 74%
18:00 +12°C° 0.3 mm 4 mps 757 mmHg 80%
19:00 +10°C° 0.3 mm 3 mps 757 mmHg 87%
20:00 +10°C° 0 mm 3 mps 757 mmHg 89%
21:00 +9°C° 0 mm 3 mps 758 mmHg 91%
22:00 +8°C° 0 mm 3 mps 758 mmHg 93%
23:00 +8°C° 0 mm 3 mps 758 mmHg 93%

19 April, Monday

Time Temperature Precipitation Wind Pressure Humidity
00:00 +8°C° 0 mm 3 mps 757 mmHg 93%
01:00 +7°C° 0 mm 2 mps 757 mmHg 93%
02:00 +7°C° 0 mm 2 mps 757 mmHg 92%
03:00 +8°C° 0 mm 2 mps 757 mmHg 92%
04:00 +8°C° 0 mm 2 mps 757 mmHg 91%
05:00 +8°C° 0 mm 2 mps 757 mmHg 90%
06:00 +8°C° 0 mm 2 mps 757 mmHg 88%
07:00 +9°C° 0 mm 2 mps 757 mmHg 87%
08:00 +10°C° 0 mm 3 mps 757 mmHg 79%
09:00 +11°C° 0 mm 3 mps 757 mmHg 71%
10:00 +12°C° 0 mm 3 mps 757 mmHg 63%
11:00 +12°C° 0 mm 4 mps 757 mmHg 59%
12:00 +13°C° 0 mm 4 mps 756 mmHg 55%
13:00 +13°C° 0 mm 4 mps 756 mmHg 50%
14:00 +13°C° 0 mm 4 mps 756 mmHg 51%
15:00 +13°C° 0 mm 4 mps 756 mmHg 51%
16:00 +13°C° 0 mm 3 mps 755 mmHg 52%
17:00 +12°C° 0.1 mm 4 mps 755 mmHg 59%
18:00 +10°C° 0.1 mm 4 mps 755 mmHg 67%
19:00 +8°C° 0.1 mm 4 mps 755 mmHg 74%
20:00 +8°C° 0 mm 3 mps 755 mmHg 79%
21:00 +7°C° 0 mm 3 mps 755 mmHg 83%
22:00 +7°C° 0 mm 2 mps 755 mmHg 88%
23:00 +6°C° 0 mm 2 mps 754 mmHg 89%

20 April, Tuesday

Time Temperature Precipitation Wind Pressure Humidity
00:00 +6°C° 0 mm 2 mps 754 mmHg 91%
01:00 +5°C° 0 mm 2 mps 754 mmHg 93%
02:00 +5°C° 0 mm 2 mps 754 mmHg 93%
03:00 +4°C° 0 mm 2 mps 753 mmHg 94%
04:00 +4°C° 0 mm 2 mps 753 mmHg 94%
05:00 +4°C° 0 mm 3 mps 753 mmHg 91%
06:00 +5°C° 0 mm 3 mps 753 mmHg 87%
07:00 +7°C° 0 mm 3 mps 753 mmHg 83%
08:00 +8°C° 0 mm 3 mps 753 mmHg 76%
09:00 +10°C° 0 mm 4 mps 752 mmHg 69%
10:00 +11°C° 0 mm 4 mps 752 mmHg 62%
11:00 +11°C° 0.1 mm 4 mps 752 mmHg 60%
12:00 +12°C° 0.1 mm 4 mps 751 mmHg 58%
13:00 +12°C° 0.1 mm 4 mps 751 mmHg 57%
14:00 +12°C° 0.1 mm 4 mps 751 mmHg 57%
15:00 +12°C° 0.1 mm 4 mps 750 mmHg 58%
16:00 +12°C° 0.1 mm 5 mps 750 mmHg 59%
17:00 +11°C° 0 mm 4 mps 750 mmHg 65%
18:00 +8°C° 0 mm 4 mps 750 mmHg 70%
19:00 +8°C° 0 mm 3 mps 750 mmHg 76%
20:00 +7°C° 0 mm 3 mps 750 mmHg 80%
21:00 +5°C° 0 mm 3 mps 750 mmHg 85%
22:00 +4°C° 0 mm 2 mps 750 mmHg 89%
23:00 +3°C° 0 mm 3 mps 749 mmHg 90%

21 April, Wednesday

Time Temperature Precipitation Wind Pressure Humidity
00:00 +3°C° 0 mm 3 mps 749 mmHg 92%
01:00 +2°C° 0 mm 3 mps 749 mmHg 93%
02:00 +2°C° 0 mm 3 mps 749 mmHg 93%
03:00 +1°C° 0 mm 4 mps 749 mmHg 93%
04:00 +1°C° 0 mm 4 mps 749 mmHg 93%
05:00 +3°C° 0 mm 4 mps 749 mmHg 88%
06:00 +4°C° 0 mm 4 mps 749 mmHg 82%
07:00 +5°C° 0 mm 5 mps 749 mmHg 76%
08:00 +6°C° 0 mm 5 mps 749 mmHg 71%
09:00 +7°C° 0 mm 6 mps 749 mmHg 65%
10:00 +9°C° 0 mm 6 mps 749 mmHg 60%
11:00 +9°C° 0.1 mm 6 mps 749 mmHg 60%
12:00 +9°C° 0.1 mm 6 mps 749 mmHg 60%
13:00 +10°C° 0.1 mm 5 mps 750 mmHg 60%
14:00 +10°C° 0 mm 5 mps 750 mmHg 60%
15:00 +10°C° 0 mm 5 mps 750 mmHg 60%
16:00 +12°C° 0 mm 5 mps 750 mmHg 60%
17:00 +10°C° 0 mm 4 mps 750 mmHg 64%
18:00 +9°C° 0 mm 3 mps 750 mmHg 69%
19:00 +8°C° 0 mm 3 mps 750 mmHg 74%
20:00 +7°C° 0 mm 3 mps 750 mmHg 77%
21:00 +7°C° 0 mm 3 mps 751 mmHg 80%
22:00 +5°C° 0 mm 3 mps 751 mmHg 83%
23:00 +5°C° 0 mm 3 mps 751 mmHg 84%
Show more

We Need Your Consent

Meteoprog and our Service Providers may store and access personal data such as cookies, device identifiers or other similar technologies on your device and process such data to personalise content and ads, as well as provide social media features and to analyse the traffic.

  • Store and/or access information on your device

    Cookies, device identifiers or other information can be stored or accessed on your device for the purposes indicated above.

  • Personalised ads and content, ad and content measurement, audience insights, and products development

    Ads and content can be personalised based on a profile. More data can be added to better personalise ads and content. Ad and content performance can be measured. Insights about the audience who saw the ads and content can be derived. Such data can be used to develop or improve user’s experience, systems and software.

By clicking ‘I Agree’ you will allow the use of indicated cookies, device identifiers, web beacons or other similar technologies. Your settings can be changed in the browser on your device.

For certain purposes, legitimate interests may be relied on, rather than consent. You can read more about this in our Privacy and Cookie Policy.